Regional Weather Roundup
Issued by NWS

Home | Current Version | Previous Version | Text Only | Print | Product List | Glossary On
Versions: 1 2 3 4 5 6 7 8 9 10 11 12 13 14 15 16 17 18 19 20 21 22 23 24 25 26 27 28 29 30 31 32 33 34 35 36 37 38 39 40 41 42 43 44 45 46 47 48 49 50
000
ASUS45 KABQ 200401
RWRNM
WEATHER ROUNDUP FOR NEW MEXICO
NATIONAL WEATHER SERVICE ALBUQUERQUE NM
900 PM MST FRI DEC 19 2014

NOTE: "FAIR" MEANS FEW OR NO CLOUDS BELOW 12,000 FEET AGL WITH NO
       SIGNIFICANT WEATHER OR OBSTRUCTIONS TO VISION.

      THIS PRODUCT IS RELEASED AS TWO VERSIONS.  ONE VERSION NEAR
      THE TOP OF THE HOUR CONTAINING PRELIMINARY DATA FROM ALBUQUERQUE
      AND OTHER STATIONS.  A FINAL VERSION WITH ADDITIONAL DATA IS
      ISSUED ABOUT 10 MINUTES AFTER THE HOUR.

NMZ501-503-504-510>518-200500-
NORTHWEST PLATEAU/NORTHCENTRAL MOUNTAINS

CITY           SKY/WX    TMP DP  RH WIND       PRES   REMARKS
FARMINGTON     CLEAR     31  25  78 CALM      30.20R
SANTA FE       PTCLDY    28  19  69 N9        30.14F WCI  19
TAOS           PTCLDY    19  14  79 N3        30.17F

$$
NMZ402-403-502-505>509-200500-
WESTCENTRAL MOUNTAINS/SOUTHWEST MOUNTAINS

CITY           SKY/WX    TMP DP  RH WIND       PRES   REMARKS
GALLUP         PTCLDY    28  25  88 W3        30.22S
GRANTS         CLEAR     24  20  86 NW13      30.21S WCI  12
SILVER CITY    CLEAR     32  32 100 N6        30.19S WCI  26

$$
NMZ407-409-411-412-200500-
SOUTHERN DESERTS

CITY           SKY/WX    TMP DP  RH WIND       PRES   REMARKS
LORDSBURG      FAIR      34  32  93 W6        30.18S WCI  29
DEMING         CLEAR     37  31  78 NW5       30.17S WCI  33
HOLLOMAN AFB   PTCLDY    34  27  76 NW6       30.15S WCI  29
ALAMOGORDO     PTCLDY    36  28  75 NE8       30.16S WCI  29
T OR C         CLEAR     34  25  69 NW7       30.16F WCI  28

$$
NMZ519>523-200500-
CENTRAL VALLEYS/CENTRAL HIGHLANDS

CITY           SKY/WX    TMP DP  RH WIND       PRES   REMARKS
ALBUQUERQUE    PTCLDY    36  24  62 N7        30.19S WCI  30
DOUBLE EAGLE   CLEAR     28  21  74 NW9       30.19S WCI  20
MORIARTY ARPT  FAIR      26  19  73 NE3       30.15S
CLINES CORNERS PTCLDY    28  20  71 NW16G23   30.09R WCI  16
BELEN          FAIR      28  24  87 NW7       30.19S WCI  20
SOCORRO        FAIR      34  25  71 N6        30.19S WCI  29

$$
NMZ524>526-539-540-200500-
SOUTHCENTRAL MOUNTAINS

CITY           SKY/WX    TMP DP  RH WIND       PRES   REMARKS
RUIDOSO        CLEAR     32  18  55 W12       30.17S WCI  23

$$
NMZ527>531-200500-
NORTHEAST HIGHLANDS/NORTHEAST PLAINS

CITY           SKY/WX    TMP DP  RH WIND       PRES   REMARKS
LAS VEGAS      PTCLDY    22  12  65 N9        30.08S WCI  12
RATON          CLEAR     22  13  68 NE6       30.08S WCI  14
CLAYTON        CLEAR     31  26  82 W8        30.08S WCI  23

$$
NMZ532>537-200500-
EASTCENTRAL PLAINS

CITY           SKY/WX    TMP DP  RH WIND       PRES   REMARKS
TUCUMCARI      CLEAR     31  25  78 S3        30.09S
CANNON AFB     CLEAR     30  29  96 SE3       30.13R
CLOVIS AIRPORT PTCLDY    30  28  93 SE7       30.12S WCI  23

$$
NMZ028-029-538-200500-
SOUTHEAST PLAINS

CITY           SKY/WX    TMP DP  RH WIND       PRES   REMARKS
ROSWELL        CLEAR     42  25  50 W5        30.13R
ARTESIA        CLEAR     37  27  65 S9        30.13S WCI  31
CARLSBAD       CLEAR     39  30  70 W7        30.11S WCI  34
HOBBS          CLEAR     36  32  87 E8        30.15R WCI  29


$$


USA.gov is the U.S. government's official web portal to all federal, state and local government web resources and services.